DECAYED

STARLINK-2488, 48145 (Decayed)

Orbit data source: Space-Track

STARLINK-2488, 48145 was a payload satellite owned by SpaceX/Seattle (US) in LEO that was launched on Wed, 07 Apr 2021 UTC via an FALCON 9 launch vehicle from the Air Force Eastern Test Range (AFETR). Payload-class satellites include a variety of spacecraft equipped with specific instruments for various scientific and technological missions. These include communications satellites like Starlink; space stations such as the ISS; scientific satellites like the Hubble; Earth observation satellites from companies like Planet Labs, Umbra, and HawkEye 360; GPS; miniature CubeSats for education and research; and military/defense satellites.

Not visible in the next 10 days
Identifier
48145, 2021-027BF
Orbit
Decayed
Country
Flag of USUS
Related business
Manufacturer
SpaceX/Seattle
Mission
Decayed Commercial Communications
Bus & Motor
STARLINK, Unknown motor
Mass
260 kg wet, ~248 kg dry
Launch date (UTC)
2021-04-07 (5 years ago)
Launch vehicle
FALCON 9
Launch site
Air Force Eastern Test Range (AFETR)
Object type
Payload
Rocket body
Debris
Shape & HBR
Box + 1 Pan, 10.1 m
Radar Cross Section
13.562 m², Large (>1 m²)

Expand to show TLE details & history
Last TLE update: 3 months ago

TLE from 3 months ago
0 STARLINK-2488
1 48145U 21027BF  26085.26801743  .10215130  12367-4  64275-3 0  9999
2 48145  53.0234  21.6235 0004774 249.5704 110.4830 16.41160134275977
Epoch: 2026-03-26T06:25Z
TLE epoch observation values (Epoch: 2026-03-26T06:25:56.705Z)
Latitude
-0.00007°
Longitude
101.41777°
Altitude
164.739 km
Speed
7.808 km/s
True Right ascension
01h 26m 29s
True Declination
0° 00' 00"
Sunlit
Object was in daylight at epoch
Visualization orbit readout
Latitude
Unknown
Longitude
Unknown
Altitude
Unknown
Speed
Unknown
Apparent Right ascension
Unknown
Apparent Declination
Unknown
Sunlit
N/A
Visualization observer readout
Local Sidereal Time
21:25:36
Azimuth
Unknown
Elevation
Unknown
Doppler factor
Unknown
Orbital elements
Apogee altitude
166.132 km
Perigee altitude
159.887 km
Semi-major axis
6,541.147 km
Eccentricity
0.00048
Inclination
53.0234°
RAAN
21.6235°
Arg. of periapsis
249.5704°
True anomaly
110.53424°
Mean anomaly
110.483°
Eccentric anomaly
110.50862°
Mean motion
4.10263 °/min
Orbital period
87.75 mins
BSTAR
0.00064275
Loading maneuver chart data...
Computing Atmospheric mass density...

Documentation

Showing up to 5 results
|